User: anonymous
Location: Long Point Provincial Park
(42.5794°N, 80.4103°W)
Time: 23:49:27
(UTC-04:00)
Language:

Iridium 19 - Orbit

View from above orbital plane
View from above orbital plane
View from above satellite
View from above satellite

Ground track
Ground track

The orbit data is extracted from the following two-line orbital elements,

1 24965U 97056A   14106.45345621  .00000291  00000-0  96821-4 0  7489
2 24965 086.3949 082.6331 0002238 101.6959 258.4488 14.34217280866614
Epoch (UTC): 16 April 2014 10:52:58
Eccentricity: 0.0002238
inclination: 86.3949°
perigee height: 776 km
apogee height: 779 km
right ascension of ascending node: 82.6331°
argument of perigee: 101.6959°
revolutions per day: 14.34217280
mean anomaly at epoch: 258.4488°
orbit number at epoch: 86661

The dashed part of the orbit path shows where the satellite is in the earth's shadow,  

DLR